Theta_e
370 368 364 358 356 351 346 339 312 318 310 307 308 311 312 324 323 322 321 327 321 328 332 333 329 328 326 322 328 330 331 325 326 311 311 331 347 349 351 353 352 351 350 352 353 356 357 361 363 363 364 364 365 366 365 366 365 364 363 359 359 358 355 356 358 359 363 368 368 367 369 368 368 368 367 367 367 366 366 367 367 367 367 367 367 367 367 366 365 366 365 364 363 363 363 363 363
370 367 363 357 352 347 337 336 312 304 307 306 309 315 316 322 323 320 320 324 325 329 334 334 334 334 334 333 332 332 330 333 334 334 338 344 349 350 355 355 352 349 355 354 354 356 357 361 363 363 364 365 365 365 366 365 364 363 362 358 357 358 356 359 363 367 368 368 368 368 368 367 368 368 367 366 366 366 367 367 367 366 366 366 366 366 366 366 366 365 364 364 364 364 365 364 363
366 363 358 357 351 347 341 333 307 302 304 301 307 314 322 319 319 322 326 327 330 333 334 333 333 332 331 331 327 327 322 339 339 341 340 348 343 347 354 356 356 355 355 356 355 353 353 358 361 362 364 365 365 365 365 366 365 363 362 361 357 357 358 362 364 368 367 367 366 367 367 367 368 367 367 366 367 367 367 366 366 366 367 367 366 366 365 365 365 364 364 364 364 364 364 363 363
360 357 350 350 337 345 327 320 305 305 303 303 307 318 320 320 322 325 328 330 332 332 331 330 328 334 329 325 328 335 332 333 341 340 339 343 344 351 355 356 357 354 356 356 354 354 355 358 360 361 365 365 365 366 366 366 367 367 366 365 364 363 366 366 366 366 366 366 365 365 365 367 367 367 367 366 366 367 367 367 366 366 366 366 365 365 365 365 365 364 364 364 363 363 362 362 361
350 349 351 344 335 328 323 316 305 302 305 301 307 316 322 323 324 325 326 330 331 331 331 331 329 334 334 330 333 326 330 339 341 344 342 347 353 354 355 356 356 356 356 358 358 357 358 356 358 363 364 364 365 366 366 366 367 366 367 367 366 366 366 366 366 367 366 365 366 366 366 366 366 366 366 366 367 366 366 366 366 366 366 365 365 365 365 365 364 364 364 364 363 362 362 362 361
342 342 347 342 330 334 313 304 304 302 306 312 313 317 322 325 324 325 327 331 333 333 332 330 327 328 328 331 336 331 338 330 341 344 345 347 353 356 355 357 355 356 357 358 359 359 357 358 357 362 364 365 365 365 366 366 366 366 366 366 367 367 367 367 367 367 367 366 367 366 366 365 365 365 366 366 366 366 366 366 365 365 366 366 366 365 365 365 364 363 363 364 363 362 361 361 359
336 335 339 336 334 328 306 302 302 304 309 320 318 320 322 324 326 328 328 328 331 331 333 329 332 330 326 333 338 341 345 345 342 344 349 351 355 355 355 355 355 355 357 358 358 359 358 358 359 364 365 365 366 366 366 366 366 366 366 366 366 366 366 366 366 366 366 366 366 366 366 365 365 365 365 365 365 365 365 365 365 366 366 365 365 365 365 364 364 364 363 363 363 362 362 361 361
345 331 332 316 314 310 305 303 304 308 313 322 323 322 324 326 328 328 327 325 324 325 330 333 334 330 329 339 329 343 346 348 347 350 352 354 354 354 355 355 354 355 356 358 359 359 363 360 361 365 366 366 366 366 365 365 365 365 365 365 366 366 366 366 366 366 366 365 365 365 365 364 364 364 365 365 365 365 365 365 365 365 365 364 364 364 364 364 363 363 363 363 362 362 361 361 360
338 332 328 315 306 306 303 302 303 309 317 323 324 329 331 328 328 327 326 328 329 330 330 331 330 325 329 334 333 341 344 348 350 353 353 353 353 354 355 354 354 354 356 357 358 359 358 359 361 367 367 366 366 365 365 365 365 365 365 365 365 365 366 366 365 365 365 366 365 365 364 364 364 364 365 364 365 365 365 365 365 364 364 364 364 364 364 363 363 363 363 362 361 360 360 359 359
335 330 315 313 307 304 302 302 306 309 317 323 324 325 326 329 328 329 327 326 327 329 330 335 334 329 333 329 334 339 342 349 350 350 352 353 354 355 354 354 355 354 355 357 359 360 359 362 363 365 366 366 365 364 365 366 366 365 365 365 365 365 365 365 365 365 365 365 364 364 364 364 365 364 365 365 365 365 365 365 364 364 364 363 363 363 363 363 362 362 362 361 360 360 360 359 359
325 329 323 308 304 301 302 302 305 309 315 320 324 328 330 331 329 328 329 328 331 329 332 335 330 330 332 332 334 346 348 349 348 347 351 353 355 354 354 355 355 355 355 357 359 360 361 361 365 365 367 367 367 366 365 365 365 365 365 365 365 364 364 364 364 365 364 363 364 364 364 365 365 365 365 365 365 365 365 364 364 364 363 363 363 363 362 362 362 361 362 362 360 360 359 358 358
318 315 315 305 305 303 304 305 308 312 318 322 323 329 331 331 330 327 327 326 329 330 329 333 328 335 329 331 333 343 347 347 348 350 352 354 355 355 354 354 355 356 357 358 360 359 360 361 362 366 367 367 366 366 365 366 366 366 365 365 364 364 364 364 364 364 363 364 364 364 364 364 365 365 364 364 364 364 364 364 364 364 363 363 362 362 362 362 362 363 363 362 361 360 360 359 358
320 317 311 306 306 306 308 307 309 316 317 320 323 328 333 330 328 328 328 329 329 327 328 334 336 334 325 330 339 344 343 346 349 351 353 354 355 355 355 354 355 356 357 359 358 358 359 360 362 362 365 367 366 367 366 366 367 366 366 366 365 364 365 365 364 363 364 364 364 364 364 364 364 364 364 364 364 364 364 364 364 364 364 363 363 362 362 363 363 362 362 362 361 360 360 359 359
318 317 310 310 310 308 306 307 310 310 310 321 326 330 331 329 330 331 330 326 327 327 333 337 336 336 331 334 336 338 341 347 350 352 354 354 355 355 354 354 355 355 356 357 357 358 359 360 361 362 363 362 363 365 367 367 367 366 366 366 366 365 365 365 365 365 364 364 364 364 364 364 364 364 364 364 364 364 364 363 364 363 363 362 363 363 362 362 361 362 361 361 360 360 360 360 360
318 320 313 308 306 306 309 307 308 308 308 320 327 328 328 332 332 331 329 326 328 335 338 341 339 332 324 330 330 336 342 347 350 353 353 355 355 354 353 354 354 354 355 357 358 358 358 360 360 361 362 361 361 360 361 364 366 366 366 366 366 366 365 366 365 365 364 364 364 364 364 364 364 364 364 364 363 365 364 363 363 364 363 363 363 362 361 360 361 360 360 361 360 360 360 360 361
318 314 310 310 306 306 307 308 309 309 310 321 326 329 328 330 333 330 331 333 332 337 338 331 340 331 333 333 335 341 345 348 351 352 353 353 353 353 353 353 353 353 354 356 357 358 359 359 359 360 359 359 359 359 360 361 365 366 367 366 366 366 366 366 365 365 364 364 364 364 364 364 364 362 364 363 364 365 364 363 364 363 363 363 362 362 361 361 360 360 361 360 357 355 355 356 358
317 313 311 305 307 307 308 308 310 306 313 317 324 328 325 326 331 331 337 337 331 332 333 336 334 339 336 336 342 346 348 351 352 351 351 350 350 349 350 351 352 353 355 356 356 357 359 358 358 358 358 358 358 359 359 360 363 366 366 367 366 366 365 365 365 365 365 364 363 363 363 362 358 359 359 359 365 362 367 364 364 364 362 361 361 360 360 360 359 359 360 359 356 357 356 355 354
318 313 305 305 304 307 312 312 311 316 314 318 325 328 326 322 327 331 335 332 332 332 332 335 338 338 340 343 346 348 349 349 350 348 347 347 347 346 346 348 349 348 352 354 356 358 358 357 357 358 358 357 358 359 359 360 362 364 359 361 362 363 364 364 363 360 364 359 363 362 359 361 357 355 355 366 361 363 363 364 364 363 362 361 362 361 361 362 361 360 359 357 355 357 356 354 353
313 307 307 306 306 311 316 316 316 317 317 321 325 327 326 324 328 331 328 327 329 328 330 333 333 336 340 343 346 346 347 347 348 347 346 345 345 343 344 346 347 349 350 352 354 357 357 357 358 358 357 357 357 357 359 360 359 359 357 358 361 364 365 364 358 362 357 356 358 357 360 358 357 356 358 360 362 365 365 362 362 361 362 362 362 362 363 363 362 360 359 359 357 357 355 351 350
314 310 307 308 311 314 316 319 318 321 321 320 321 322 326 327 329 332 327 326 328 326 326 330 331 332 337 341 344 345 346 345 346 346 345 345 345 344 344 345 346 347 349 351 353 357 358 357 357 357 357 357 357 357 358 358 357 358 357 357 359 359 359 361 356 358 357 356 358 357 358 357 358 356 366 364 362 360 361 365 363 361 360 362 363 363 364 364 362 362 361 361 361 360 356 354 352
312 312 307 311 313 314 316 320 319 320 322 320 320 324 325 328 330 330 327 325 325 327 331 331 330 333 336 340 342 344 344 343 344 345 345 345 346 347 346 346 346 347 350 351 353 355 357 357 357 357 358 357 357 357 358 357 356 357 355 356 357 357 357 356 357 357 357 357 357 357 357 357 356 354 355 356 357 356 355 354 354 354 353 351 362 355 354 354 358 353 353 356 351 353 353 354 351
309 312 316 314 314 314 318 320 321 321 322 321 322 323 324 329 329 327 328 323 322 328 332 334 335 336 337 338 341 343 342 342 343 343 343 344 345 345 346 347 348 349 351 350 351 353 355 357 357 357 358 357 357 357 358 359 361 356 356 356 356 357 357 356 356 357 357 356 355 357 358 357 356 356 353 353 353 350 352 353 352 349 349 351 353 351 350 351 350 349 349 349 349 351 352 352 350
309 310 311 315 318 317 319 320 321 322 321 322 322 324 327 326 325 328 328 326 329 335 336 337 338 339 340 341 341 340 341 341 342 342 343 344 344 346 346 347 347 347 350 350 352 353 354 356 357 357 357 357 357 358 358 359 359 357 357 357 356 356 356 356 356 355 356 355 355 357 358 355 355 353 353 352 352 350 350 350 352 351 350 349 349 348 348 348 348 348 347 347 346 348 350 351 350
312 307 313 316 319 319 319 322 324 324 323 322 326 328 325 325 322 327 326 329 334 336 338 338 339 340 341 339 340 340 341 341 342 343 344 345 346 346 347 346 348 349 350 350 351 353 354 354 356 357 357 357 356 358 357 357 358 357 357 362 360 362 359 356 356 356 356 356 356 356 361 356 354 352 352 351 352 349 350 349 349 350 351 349 349 350 349 348 349 347 346 345 346 347 348 349 348
309 310 314 315 318 319 323 324 324 323 323 326 326 324 324 326 325 327 325 331 335 336 338 338 339 339 339 339 339 340 340 342 342 343 345 345 346 348 348 348 349 349 348 349 351 352 353 355 356 356 356 357 357 357 357 357 357 357 357 359 358 363 359 357 357 357 356 356 356 356 360 356 354 353 351 351 348 349 349 348 347 347 347 348 347 347 348 348 348 348 347 347 347 347 346 347 346
313 313 315 318 320 322 323 323 323 324 325 326 323 322 324 326 329 324 328 332 336 337 337 337 338 337 337 338 339 339 340 340 342 342 343 345 346 346 346 348 349 348 349 350 351 352 353 355 356 356 356 357 357 357 356 357 356 355 356 357 358 362 358 357 356 356 356 355 354 355 356 357 354 353 352 350 348 348 346 346 348 348 348 348 347 346 347 346 347 347 347 346 347 347 346 346 348
314 314 319 320 321 322 324 322 323 325 325 326 323 322 323 328 326 318 330 333 336 336 335 336 336 336 337 338 339 339 340 340 341 343 343 344 344 345 346 347 348 349 351 350 351 352 354 355 356 357 356 360 356 356 355 356 357 355 356 356 357 358 358 359 357 356 355 354 354 353 353 355 356 354 352 350 347 345 344 344 345 347 347 348 347 347 347 348 347 347 347 346 346 346 346 346 346
316 320 321 321 322 323 323 324 323 326 324 326 325 322 323 325 325 322 328 334 336 334 334 334 335 335 336 337 338 339 339 341 342 342 341 341 342 344 344 346 347 349 349 350 351 353 354 355 356 357 356 359 357 356 358 356 356 355 356 355 355 356 358 357 356 355 356 354 354 351 350 351 357 354 352 350 347 345 344 343 344 345 346 348 349 349 348 349 349 349 348 347 347 346 347 346 346
319 322 316 318 321 320 323 322 324 326 322 326 326 322 319 321 319 326 331 334 335 333 333 334 334 335 336 337 337 337 338 340 341 340 341 343 344 346 344 347 348 348 351 352 352 353 354 355 356 356 356 357 357 355 356 356 356 355 355 354 355 356 355 356 355 354 353 353 352 351 350 350 355 355 352 350 352 346 345 344 345 347 348 349 350 351 351 351 348 346 346 347 344 344 344 345 347
318 321 318 316 316 316 321 324 324 324 324 327 325 308 311 317 323 328 332 333 333 331 331 333 333 334 335 336 336 336 338 338 338 340 341 343 344 345 345 347 350 349 350 351 351 352 354 356 357 357 356 356 357 356 355 355 354 353 354 353 356 354 353 353 354 353 353 352 351 350 350 351 353 355 354 351 350 347 346 346 346 348 350 352 352 351 352 351 349 346 346 344 348 346 344 345 345
313 316 319 311 310 310 318 320 323 321 324 325 322 309 310 317 324 329 331 332 331 329 330 331 332 333 334 335 335 335 336 337 338 339 340 343 345 346 345 347 349 350 351 350 350 351 354 355 357 356 357 356 359 355 355 354 354 353 352 351 351 352 351 351 351 351 350 351 350 350 350 352 353 354 353 351 350 349 348 348 349 351 352 351 350 348 348 348 349 348 347 344 344 346 348 347 345
310 310 305 309 310 309 315 317 322 318 321 322 319 309 311 318 323 328 331 331 330 328 329 330 330 331 332 333 333 334 335 336 338 339 340 342 344 344 345 345 348 349 349 349 350 351 352 354 359 355 357 355 357 355 354 353 353 351 351 355 350 350 350 349 349 350 350 350 351 349 350 353 354 352 350 348 346 346 346 347 348 349 350 348 346 345 346 346 344 345 346 345 346 348 347 344 343
306 304 302 304 306 309 310 315 319 324 322 319 317 309 314 316 324 327 330 329 328 327 327 327 328 329 330 331 332 333 333 333 335 337 338 341 344 344 344 345 346 348 349 349 349 349 351 353 359 355 355 355 356 355 355 353 352 351 350 351 350 349 348 348 348 349 349 349 349 349 350 355 352 350 349 348 347 346 345 345 345 347 348 348 347 346 345 346 345 347 347 349 347 345 345 344 344
302 304 303 304 308 306 305 314 316 320 320 315 317 314 316 319 323 326 327 328 326 325 325 326 326 327 329 330 330 331 331 331 331 334 336 340 342 343 344 348 346 348 348 349 349 349 350 352 354 355 355 355 355 355 355 353 352 352 351 350 355 348 348 348 349 349 348 348 349 349 349 354 354 348 347 346 346 346 344 344 346 347 348 349 348 347 347 346 344 343 345 343 344 340 343 345 346
298 302 302 303 307 309 308 309 313 317 318 315 314 315 316 317 322 324 325 327 325 324 324 325 325 327 328 329 329 330 330 331 331 333 335 338 341 342 343 344 344 346 347 348 348 349 350 350 353 355 356 354 354 355 355 354 353 352 351 350 352 351 350 351 351 349 349 350 350 350 350 351 352 346 346 346 344 344 345 344 346 347 349 348 346 346 345 346 347 341 341 344 342 340 343 343 344
303 305 306 305 304 306 307 312 316 318 314 312 314 313 314 317 320 323 324 325 323 323 324 325 326 326 327 327 328 329 329 331 333 334 333 337 339 341 341 343 343 345 346 347 348 347 347 348 350 352 355 354 354 354 353 351 352 351 349 350 350 352 351 352 350 349 349 349 351 351 351 348 348 347 344 343 342 343 342 343 344 348 348 345 344 342 341 340 341 340 341 342 342 338 340 343 338
305 306 305 306 307 307 309 312 317 319 314 312 314 315 315 317 319 322 323 324 323 322 323 324 325 326 326 326 327 328 329 331 334 334 335 336 338 340 341 342 342 343 344 345 346 345 346 346 349 350 353 354 353 352 351 350 349 347 347 349 348 351 353 352 352 350 349 349 349 349 348 347 346 346 347 345 344 348 347 345 350 350 345 344 342 341 339 339 339 341 340 342 343 340 335 335 337
304 304 304 303 307 305 309 310 317 318 314 309 314 314 315 317 320 322 323 322 321 321 323 324 325 326 326 326 326 328 329 333 336 334 339 339 339 340 341 341 344 340 342 344 345 346 346 347 348 350 353 353 353 353 352 350 349 349 346 347 345 348 351 352 349 350 350 352 349 347 348 347 347 347 349 346 347 347 349 352 352 349 343 341 342 342 342 346 342 340 339 339 341 340 335 335 339
304 302 303 304 302 307 309 312 317 316 314 309 312 313 314 317 319 321 322 322 323 324 325 326 326 325 326 325 326 328 329 333 335 335 340 341 342 341 341 341 342 343 343 345 346 347 347 347 349 351 352 353 353 354 352 350 350 351 349 348 349 347 348 349 348 351 354 351 350 350 349 348 347 347 348 350 348 350 351 348 346 341 339 343 338 334 335 339 338 338 336 335 333 334 337 338 338
300 301 301 300 304 306 302 308 315 315 312 309 312 312 312 316 318 320 322 322 323 324 326 327 328 326 326 326 326 328 329 333 334 335 338 341 342 342 341 341 342 343 345 346 347 347 348 349 349 351 352 353 353 354 356 352 354 352 350 352 350 348 346 349 339 340 342 345 346 350 350 349 349 348 349 348 351 347 346 346 341 339 336 337 337 337 333 336 338 338 338 338 335 334 338 336 341
299 301 301 301 305 306 306 306 311 310 313 315 312 309 308 311 313 314 319 323 323 324 325 327 328 329 329 328 328 330 330 334 334 336 338 340 341 341 341 342 343 343 345 346 348 348 350 349 350 351 352 352 353 356 356 353 356 351 349 349 347 339 338 335 334 334 337 342 343 346 350 350 351 349 346 346 346 340 339 339 338 338 335 336 338 335 334 334 336 336 337 338 339 339 337 339 336
297 299 302 303 307 307 307 309 309 304 304 312 312 300 301 306 311 314 316 318 320 322 322 324 326 328 328 327 327 330 332 336 336 336 338 340 341 342 343 343 343 344 345 348 349 349 350 349 351 351 352 352 353 354 355 355 356 349 347 344 340 333 330 329 329 332 333 335 339 342 344 347 346 341 339 339 340 339 337 338 336 337 336 337 340 335 335 335 334 336 337 337 336 337 338 338 330
298 297 301 304 306 309 308 307 307 299 300 308 315 303 295 303 309 312 313 315 318 319 320 323 325 326 327 327 328 329 331 334 337 338 339 340 341 342 343 343 344 344 346 349 350 350 350 350 352 353 352 352 354 355 354 355 352 349 347 345 343 335 331 330 328 331 334 333 336 337 338 337 338 339 337 335 335 340 336 337 337 336 336 335 341 334 334 334 334 334 338 335 334 340 336 330 329
296 299 301 303 304 306 307 308 308 304 309 310 312 306 299 299 308 312 314 313 315 317 318 320 324 326 327 328 329 330 332 334 336 337 339 341 342 342 343 344 345 346 347 350 350 351 351 350 352 352 352 354 354 356 353 354 351 348 346 342 341 333 331 330 331 331 332 337 334 334 333 335 334 333 335 334 334 336 338 336 335 335 336 338 344 335 334 334 334 334 343 340 338 339 333 329 328
298 302 302 301 303 306 308 308 307 304 305 300 308 308 300 298 305 312 313 310 312 314 317 319 322 325 327 328 329 331 333 335 337 337 338 340 341 342 344 345 347 348 349 350 350 351 352 352 352 353 352 352 353 355 353 352 352 347 344 339 337 333 331 333 336 337 336 337 331 330 331 333 334 335 334 334 336 336 343 338 335 335 334 338 347 337 335 336 334 333 333 335 333 335 334 334 331
303 306 303 302 303 305 308 307 306 303 301 296 304 306 300 294 301 307 310 311 311 313 316 318 321 324 326 328 329 332 333 335 337 339 339 341 342 343 345 347 347 349 350 352 352 352 352 353 352 352 351 352 352 353 352 350 348 345 338 335 334 331 335 332 335 334 332 331 330 330 331 332 331 331 333 334 334 336 340 339 337 335 334 337 344 334 335 335 334 334 334 332 329 333 335 336 333
304 304 301 299 299 304 305 302 300 299 295 297 306 307 305 296 301 307 306 309 313 315 316 318 320 323 326 329 329 331 333 335 336 338 340 341 343 344 345 345 346 349 350 352 352 353 352 353 352 351 352 352 351 352 349 347 344 339 336 332 332 332 333 333 330 329 329 329 330 331 331 331 329 330 334 333 335 335 335 339 336 334 334 342 342 334 335 335 335 334 334 335 334 330 330 332 336
304 301 299 298 296 298 297 296 300 296 292 297 306 306 306 296 296 305 313 317 317 317 316 316 318 321 324 327 329 331 333 335 336 338 339 340 341 342 344 344 344 347 349 351 352 353 352 353 352 351 351 350 347 350 346 343 341 336 333 331 331 333 333 332 330 330 331 331 330 331 330 328 328 331 330 331 334 335 337 334 339 336 339 334 333 332 333 334 335 334 332 330 329 330 329 332 327
301 299 297 293 285 291 292 293 293 291 294 300 302 307 301 301 301 310 313 315 317 318 319 318 318 320 323 326 329 330 333 334 336 337 338 339 339 341 341 343 343 345 347 350 351 352 353 353 352 351 349 348 345 346 343 339 338 334 332 331 331 333 333 331 329 329 330 332 331 331 329 328 329 330 329 330 332 333 335 332 331 331 332 334 336 333 334 335 334 333 331 331 330 329 331 331 328
297 296 293 291 288 287 283 287 287 289 294 297 299 306 300 298 306 308 313 316 318 319 319 320 320 321 322 325 327 330 332 333 335 337 338 339 339 341 342 342 343 345 347 349 351 351 352 352 352 351 349 346 343 341 341 336 336 333 332 332 332 334 332 332 329 329 331 332 332 331 331 330 331 329 329 331 334 332 335 333 336 331 330 331 335 333 334 334 334 333 332 332 330 332 329 329 330
299 297 299 294 291 287 285 286 290 294 297 298 298 300 295 301 303 310 314 318 319 320 320 321 321 322 323 325 327 329 331 332 334 336 337 338 339 340 342 342 343 344 347 349 351 351 351 351 351 350 348 343 340 339 338 336 334 333 332 333 333 334 332 332 330 331 331 331 332 332 331 330 330 329 330 334 333 332 333 332 333 332 332 332 334 336 338 335 335 335 334 332 333 330 329 330 329
298 297 299 294 295 294 291 290 293 293 292 292 297 296 299 306 308 313 315 316 318 319 319 319 318 321 322 323 324 326 330 332 333 334 336 337 339 339 341 342 343 344 346 349 350 351 351 350 350 350 347 341 339 339 337 335 333 334 333 333 334 336 338 333 333 336 333 333 332 331 331 330 331 330 330 331 333 334 333 332 333 335 333 332 332 334 334 335 334 333 332 331 331 335 330 329 331
297 298 295 298 301 300 295 298 298 296 292 291 295 297 297 301 305 305 313 311 312 317 318 318 318 320 321 322 323 325 329 331 332 333 334 336 337 338 340 341 342 344 346 348 350 351 351 350 348 347 346 341 338 339 336 335 332 333 334 334 334 335 335 332 332 333 333 332 333 331 331 331 331 331 331 334 333 333 332 332 333 334 333 332 331 333 334 333 333 334 334 329 330 330 332 331 330
298 295 297 301 304 300 296 290 290 290 287 289 293 295 294 296 294 304 312 310 312 315 316 318 318 319 319 321 322 325 328 330 332 333 334 335 336 337 339 341 342 344 346 348 350 352 351 350 348 346 344 339 338 338 336 335 333 333 335 335 334 334 334 333 333 333 331 332 331 331 331 331 331 332 333 336 335 333 332 340 333 332 332 331 333 332 332 332 332 332 333 332 332 330 330 331 332
305 303 302 301 293 295 294 292 289 287 288 287 291 293 295 295 297 302 306 309 311 313 315 317 317 317 319 321 322 324 327 330 330 331 332 334 335 336 337 339 342 344 347 349 351 352 351 349 348 346 344 341 339 338 336 336 335 334 336 336 334 334 334 332 333 333 331 331 331 331 331 331 330 330 336 334 334 332 332 332 334 332 331 332 331 332 332 331 331 331 332 332 332 331 330 330 330
305 302 300 303 299 294 293 294 292 293 286 288 288 291 292 299 296 303 306 311 313 313 313 315 317 318 319 320 322 322 325 328 330 331 332 333 335 336 337 339 340 342 345 348 350 351 350 349 347 345 344 342 339 338 338 335 335 335 337 336 335 335 334 332 332 331 330 330 331 331 330 328 328 332 332 332 333 332 332 331 331 332 331 331 330 331 331 331 330 331 331 332 332 330 330 330 330
297 299 296 301 302 299 297 298 292 292 287 286 285 288 290 296 303 306 308 311 314 315 314 316 318 318 319 320 322 322 324 327 329 331 332 332 333 336 338 339 341 343 346 348 349 350 349 348 345 344 342 340 338 338 337 336 337 337 338 335 334 334 333 332 331 331 331 330 331 333 330 330 329 330 332 331 331 331 331 331 330 331 330 330 329 329 330 329 328 329 329 330 329 328 329 329 330
299 300 298 297 294 295 293 292 295 294 291 284 285 288 289 298 311 310 309 311 314 316 317 317 317 318 319 321 322 323 323 326 329 330 332 332 333 335 337 339 341 342 344 346 348 349 348 346 345 343 342 340 339 337 337 337 338 338 338 336 335 334 333 332 331 331 331 330 330 331 330 329 328 329 330 331 331 331 331 330 329 328 329 330 329 329 329 329 330 329 329 331 331 329 328 329 327
Wind_Speed
9 8 6 5 3 3 3 4 1 2 4 5 4 1 1 4 1 4 2 1 3 2 1 4 5 4 1 3 10 9 9 2 1 3 3 2 3 7 5 7 11 9 8 6 5 5 5 7 15 15 16 19 20 18 19 20 21 21 22 20 20 20 16 12 18 20 19 18 17 16 15 15 15 15 14 14 13 13 12 12 12 11 11 11 11 11 11 11 10 10 9 9 9 9 9 9 8
6 7 6 5 3 3 1 2 3 4 4 7 2 2 3 1 0 4 9 3 1 2 4 9 9 11 14 14 11 5 11 6 0 4 6 5 7 5 6 8 12 9 9 7 5 5 5 6 12 16 16 18 19 19 19 20 21 21 21 21 20 20 18 15 16 16 16 16 15 15 15 15 15 14 14 13 13 13 12 12 11 11 10 10 10 10 10 10 9 9 8 8 8 8 8 8 8
6 6 4 3 4 3 1 2 2 3 7 5 1 2 6 3 4 2 1 3 6 8 9 10 7 5 5 4 6 4 2 6 8 8 6 8 11 6 7 7 8 7 8 6 6 5 4 5 12 15 16 17 18 18 18 17 18 19 21 22 21 21 20 17 16 15 15 16 15 15 15 15 14 13 13 13 13 12 12 11 11 10 10 9 9 9 9 8 8 8 8 8 7 8 8 8 7
7 4 6 3 3 2 1 1 3 7 7 4 5 2 4 6 6 7 6 7 8 7 5 4 6 3 4 10 7 11 8 5 5 8 7 5 3 8 8 8 8 8 5 6 6 5 5 10 13 11 13 16 17 16 16 16 16 16 16 17 17 17 16 16 15 15 15 15 15 15 14 13 13 12 12 12 12 11 11 10 10 9 9 8 8 8 8 7 7 6 6 7 7 7 7 7 6
7 4 3 2 4 1 2 1 5 3 8 4 6 2 5 8 10 7 5 5 4 3 4 5 5 5 7 8 1 1 3 6 3 3 4 4 9 9 9 8 8 9 8 7 7 5 7 12 9 12 16 18 16 16 16 16 16 15 14 13 13 14 14 14 14 14 14 13 13 14 13 12 12 12 11 11 11 10 10 9 9 8 8 8 7 7 6 6 5 5 5 5 6 6 6 6 6
5 4 1 1 2 1 3 3 4 3 4 7 8 5 7 8 11 8 8 6 6 5 4 6 5 4 4 4 3 4 5 5 5 4 5 6 11 11 10 9 8 11 9 6 6 5 6 11 9 11 15 15 14 13 13 14 15 15 15 14 13 13 12 12 12 12 12 12 12 12 12 12 11 11 11 10 10 9 9 8 8 8 7 7 6 6 5 4 4 4 4 4 4 5 5 5 5
5 4 0 3 4 1 4 7 7 6 1 6 9 10 10 7 9 12 9 9 8 11 6 11 14 12 9 1 5 4 3 6 4 5 5 11 12 11 10 8 9 9 8 7 6 7 7 10 8 9 12 12 13 12 13 13 14 14 14 13 13 12 12 12 12 12 11 11 11 11 10 10 10 10 10 10 9 9 8 8 7 7 6 6 5 5 4 4 3 3 3 3 3 4 4 4 4
3 4 4 3 0 3 5 5 5 3 2 2 10 13 11 11 10 9 7 10 5 6 3 5 3 11 6 5 5 2 5 3 8 9 12 10 11 10 10 9 9 8 7 6 6 7 14 17 14 13 12 12 12 13 14 13 13 13 13 13 12 12 12 11 11 11 11 10 10 10 10 10 9 9 9 9 9 8 8 8 7 6 6 5 5 4 4 4 3 3 4 3 3 3 3 3 3
3 1 1 1 2 2 4 4 4 0 7 8 7 11 13 12 10 11 7 3 9 5 8 9 3 6 2 8 5 5 7 10 10 11 11 12 11 11 8 9 9 8 7 6 7 8 9 16 14 16 15 14 14 14 14 14 13 13 12 12 11 11 11 11 11 11 11 10 10 9 9 9 9 9 9 9 8 8 8 7 7 6 5 5 5 5 4 4 4 4 4 3 3 3 3 2 2
2 1 2 2 3 6 3 4 8 4 8 8 15 13 10 7 7 11 12 6 6 10 3 4 5 12 10 11 5 3 5 12 12 11 10 10 10 9 9 9 9 9 7 6 5 7 7 16 17 15 16 16 15 14 14 13 13 12 12 11 11 11 11 11 10 10 10 10 10 10 9 9 9 9 8 8 9 8 8 7 6 6 5 5 5 5 4 4 5 5 4 4 3 4 3 3 3
1 1 2 3 5 3 5 3 6 4 8 5 5 7 9 9 10 9 7 9 4 6 10 15 11 13 9 6 3 4 11 12 11 13 11 11 10 10 8 8 9 8 8 7 5 4 6 8 16 16 15 16 15 15 14 13 13 12 12 12 11 11 11 11 11 10 10 10 10 10 9 9 9 8 8 8 8 8 7 7 6 6 5 5 4 4 4 4 4 4 3 3 3 3 3 3 3
1 1 1 5 3 5 2 7 6 4 6 8 6 8 5 10 11 10 11 11 7 8 11 2 5 11 11 5 3 7 10 10 9 11 11 11 9 9 8 7 8 7 7 7 6 4 5 6 7 13 15 15 15 15 14 14 13 13 12 12 12 11 11 11 11 11 11 11 10 10 9 9 9 8 8 8 7 7 7 6 6 5 5 4 4 4 4 4 4 4 4 4 4 4 4 4 4
2 2 5 5 3 4 3 7 4 8 6 4 12 4 8 10 11 13 9 11 9 11 3 4 14 3 6 4 4 8 9 8 10 11 11 9 9 8 7 7 8 8 7 6 5 4 4 4 5 5 9 15 14 14 14 13 13 13 13 12 11 12 12 11 11 11 11 11 10 10 9 9 9 8 8 8 7 7 6 6 5 5 5 5 5 5 5 5 5 5 6 6 6 5 5 5 5
2 4 3 2 1 4 6 6 7 8 3 6 3 11 6 7 9 14 13 12 8 3 3 13 5 10 11 8 6 7 7 9 11 10 9 9 9 9 8 7 8 7 6 5 5 4 4 4 4 4 6 6 6 11 13 14 13 13 13 13 13 13 12 12 12 11 11 10 10 10 9 9 9 8 8 8 7 7 6 6 6 6 6 5 6 6 6 6 6 7 7 8 8 7 7 7 6
3 2 4 4 1 2 2 8 10 8 6 8 8 10 6 1 13 13 18 16 2 8 12 2 9 5 7 12 8 10 10 11 11 11 9 9 10 9 9 6 7 5 5 5 4 4 4 4 4 3 4 3 5 4 4 9 13 13 13 12 12 13 12 12 12 11 10 10 10 9 9 9 8 8 8 7 7 7 7 6 7 7 7 8 7 7 7 7 6 8 10 10 10 9 9 8 8
3 5 4 1 1 4 3 6 4 10 7 8 10 6 9 7 6 11 3 3 9 6 7 5 4 0 8 5 12 14 14 13 10 11 10 10 9 8 8 7 5 4 3 3 4 3 3 4 3 4 3 3 3 4 4 4 10 13 12 12 12 12 12 11 11 10 10 10 9 9 9 6 6 5 8 6 8 8 7 6 7 8 8 8 7 7 7 8 7 7 8 10 11 10 10 12 12
1 4 1 2 1 2 4 3 9 8 9 8 10 11 12 9 4 4 7 10 18 11 2 2 2 2 12 3 13 14 15 13 11 12 10 8 7 6 5 5 5 4 3 3 3 3 3 4 4 4 3 4 4 4 3 3 6 11 10 11 12 11 10 11 10 10 10 9 7 7 7 3 2 2 3 2 6 3 5 8 9 8 8 8 8 8 7 6 6 7 7 7 9 11 9 7 9
1 1 4 2 4 3 5 6 6 10 13 11 14 11 17 11 6 7 11 9 10 7 6 5 7 8 6 11 13 14 15 14 14 13 11 8 7 7 6 5 6 6 5 5 4 4 4 3 4 4 4 4 4 4 3 3 3 8 3 4 4 6 8 8 6 3 6 1 8 5 3 2 2 2 2 3 3 2 4 8 9 9 9 9 9 9 8 7 8 6 6 7 10 13 11 6 4
3 1 2 6 4 4 6 4 10 12 12 14 13 12 16 13 16 9 10 10 9 9 7 8 8 9 11 12 15 15 14 15 15 13 13 11 9 10 8 7 7 7 6 6 5 6 5 4 4 5 4 4 4 3 3 3 3 3 3 3 3 5 4 4 2 3 2 3 1 3 2 3 3 3 2 3 2 6 5 9 9 9 9 10 9 9 9 9 9 8 7 7 8 13 8 1 2
2 5 4 6 7 3 6 10 12 13 17 15 13 8 11 15 13 9 11 13 10 12 10 9 10 13 14 14 15 14 14 15 13 14 13 11 10 10 9 10 8 8 8 7 7 6 6 5 6 5 6 5 5 4 3 3 3 3 3 3 4 3 3 2 3 3 3 3 3 3 3 3 2 2 5 8 8 3 4 8 10 10 9 8 10 8 9 9 10 8 8 10 7 5 4 3 1
2 3 5 7 5 4 4 11 10 13 17 15 12 10 12 12 11 11 13 12 6 6 14 17 15 17 16 16 15 14 15 14 13 13 13 11 9 8 8 9 9 8 7 6 5 7 8 7 6 5 5 4 4 4 4 4 2 3 2 3 4 3 3 2 3 3 3 3 3 3 3 2 2 2 2 2 2 1 2 3 3 3 2 3 5 3 4 4 4 4 3 4 3 4 4 4 2
3 9 10 6 6 4 7 9 14 13 12 13 14 17 12 9 8 12 18 14 10 13 11 12 18 14 16 18 16 13 14 14 14 13 13 13 13 11 9 7 6 6 6 7 8 7 7 7 7 5 5 4 4 5 5 5 4 4 4 4 4 4 4 3 4 4 4 4 3 3 2 3 3 3 2 3 3 2 3 3 3 3 3 3 2 4 4 4 4 3 3 4 4 4 3 3 2
3 4 6 7 11 7 6 10 11 14 10 14 15 11 12 11 9 14 16 12 10 10 13 15 18 19 16 13 13 15 15 15 15 14 13 13 11 10 11 9 9 8 8 7 7 6 7 7 7 6 6 6 6 5 4 4 4 4 4 4 4 4 4 4 4 4 4 3 3 3 4 4 4 4 3 3 4 3 4 4 4 2 3 4 2 2 4 4 4 4 4 4 4 4 4 3 2
6 7 6 11 11 8 8 13 13 12 14 11 9 12 14 12 12 6 2 2 11 12 13 14 14 15 16 15 13 15 15 15 15 14 14 13 13 13 11 11 9 7 7 8 7 7 8 9 8 7 7 7 6 5 5 5 4 4 5 5 5 5 5 5 5 4 4 4 4 5 5 5 4 4 4 4 4 3 4 4 3 3 3 4 2 3 4 4 4 4 4 4 4 5 5 4 2
4 3 4 4 5 7 11 13 12 11 11 12 13 13 14 17 12 9 3 10 12 14 13 14 15 15 14 16 15 14 14 14 14 13 11 9 10 10 9 7 8 8 9 9 8 8 9 9 9 9 7 8 6 6 6 5 5 5 4 5 5 5 5 5 5 4 4 4 4 5 4 4 4 4 4 4 3 4 4 4 4 4 4 4 3 4 3 4 4 4 4 4 4 4 5 6 3
1 2 5 7 7 11 12 12 13 15 9 12 11 8 6 7 13 4 7 10 13 16 15 15 15 15 14 14 15 14 13 14 13 13 13 10 11 12 11 10 9 10 10 9 9 8 8 9 10 10 9 8 7 6 5 6 6 6 6 6 5 5 5 5 4 5 5 5 5 5 4 3 4 4 4 4 4 5 3 3 3 4 4 4 3 4 3 3 5 4 4 5 4 4 4 5 4
2 5 9 13 13 13 12 14 11 10 10 14 15 10 9 9 9 2 4 11 14 16 16 14 15 16 14 13 13 12 14 14 15 12 10 9 10 11 11 10 10 10 9 10 9 8 8 9 9 9 9 9 6 7 6 6 6 6 7 6 5 6 5 5 5 5 5 5 5 3 3 3 3 3 4 4 3 3 3 3 4 4 4 5 3 5 4 4 4 5 5 4 4 4 4 4 4
7 11 11 11 9 11 12 12 11 12 4 11 17 10 6 1 1 12 13 12 16 18 15 15 13 13 13 13 12 10 10 11 12 11 13 12 10 10 10 10 10 9 10 11 9 8 8 10 10 9 9 8 7 7 6 6 6 7 6 5 6 6 5 5 5 4 5 5 4 3 3 4 3 4 5 4 4 3 3 3 4 4 5 4 4 4 5 4 3 3 5 4 4 3 4 4 3
7 18 13 6 11 9 11 14 9 11 4 10 14 12 3 1 6 11 14 15 15 16 16 15 14 12 12 12 11 10 11 11 10 10 12 11 10 9 12 12 11 10 8 10 9 9 10 10 9 9 9 8 8 8 7 6 6 6 6 6 6 5 5 5 5 5 5 5 4 3 3 3 4 5 5 4 3 4 3 4 5 5 5 4 4 5 5 4 3 3 5 4 5 2 3 5 4
1 8 14 9 7 8 4 10 9 12 9 15 11 5 5 2 9 13 15 15 15 14 14 14 12 12 11 12 11 11 11 10 10 11 11 11 11 12 13 12 12 11 9 8 8 10 9 7 7 7 8 9 9 8 7 6 6 6 5 5 5 5 5 5 6 5 4 4 4 4 4 5 5 5 5 4 4 3 3 4 4 5 5 5 5 4 5 3 3 3 4 1 4 3 4 4 3
1 4 10 10 10 7 7 4 11 13 9 9 5 7 6 3 10 14 15 17 17 15 14 13 13 12 12 12 11 12 12 11 13 13 13 13 13 12 13 12 12 10 7 7 11 11 10 8 7 7 8 9 9 8 8 7 6 6 6 5 5 5 5 5 5 4 4 5 4 5 5 5 5 5 4 4 4 4 4 4 4 5 4 4 4 2 4 3 3 3 2 2 3 3 4 4 4
2 5 0 3 11 7 7 4 14 14 7 5 10 3 8 9 11 15 15 16 17 16 15 14 13 13 13 11 12 13 12 11 13 14 14 14 13 12 12 12 12 10 11 11 11 9 10 9 8 8 8 9 9 9 8 8 7 6 6 6 5 5 5 5 5 5 5 5 5 5 5 5 5 5 4 4 4 4 4 4 3 2 3 2 2 3 1 3 2 2 2 2 3 3 3 4 3
3 2 5 6 4 10 3 7 7 20 15 3 4 6 6 4 11 14 15 17 16 15 15 14 14 14 14 12 11 12 11 10 11 13 13 13 12 12 12 12 12 13 12 10 10 10 10 9 10 10 10 11 10 9 8 7 6 6 7 6 6 5 5 5 5 5 5 5 5 5 5 5 5 6 5 4 4 4 4 5 4 4 2 1 2 1 1 2 1 2 3 3 3 3 3 4 3
7 1 6 6 12 8 6 6 6 6 16 6 1 9 11 8 15 15 15 17 16 14 15 15 14 12 13 12 11 11 12 12 13 12 13 13 11 13 12 12 14 13 11 12 12 12 12 10 9 10 9 10 9 9 9 8 7 7 6 6 5 6 6 6 5 4 5 5 5 5 5 6 5 3 3 3 4 4 2 2 3 3 2 3 4 4 4 2 1 2 3 3 3 2 2 4 4
7 5 5 2 4 19 13 12 7 6 8 13 3 7 7 6 13 15 16 16 16 15 15 15 14 13 13 12 11 12 12 14 14 13 13 13 13 13 12 12 13 12 10 11 10 10 10 9 9 9 9 9 8 7 6 6 6 6 5 5 5 6 6 6 6 6 6 6 7 7 6 5 4 4 4 4 3 1 1 2 3 3 3 3 3 4 4 4 4 3 3 5 1 2 3 3 4
6 6 8 8 10 9 10 8 6 15 6 6 10 9 8 11 13 13 13 14 14 14 13 13 13 13 13 13 12 11 10 14 12 12 12 12 12 12 11 11 11 11 10 10 11 10 9 9 8 8 8 8 6 5 5 5 5 5 5 2 2 2 2 3 2 3 4 5 5 4 4 4 3 4 4 3 3 2 2 2 2 3 2 2 2 2 3 3 4 4 4 3 5 2 2 4 3
4 2 3 10 13 10 4 6 10 11 7 6 8 9 11 15 17 17 16 13 11 11 12 12 12 13 13 12 13 12 11 12 11 12 11 13 13 12 12 11 11 11 10 11 11 10 10 11 9 10 8 7 7 6 6 6 6 4 3 5 5 4 4 3 3 3 4 4 1 1 2 3 3 3 3 3 3 3 3 2 2 3 2 1 1 2 3 3 3 3 1 1 2 3 2 1 2
2 2 2 6 9 12 10 11 12 9 9 3 1 8 9 15 15 15 13 13 15 15 14 14 15 15 14 14 14 13 11 4 6 7 8 10 11 12 11 10 10 12 10 10 11 12 11 10 11 10 7 8 8 8 7 6 5 6 5 5 3 4 5 5 4 4 5 2 2 2 2 3 3 3 3 3 3 3 4 3 3 3 2 2 1 1 1 2 2 1 1 1 1 1 2 2 3
1 4 3 1 6 1 3 5 13 9 6 7 7 10 9 11 14 13 16 18 16 16 17 17 16 15 13 13 14 13 8 7 8 10 9 10 13 13 12 11 12 14 13 13 12 11 10 10 11 9 8 9 9 8 6 6 4 3 4 3 5 2 1 1 2 2 3 4 4 4 3 3 4 3 3 3 3 4 4 3 4 3 1 0 0 2 2 2 1 1 1 1 1 1 1 2 2
4 2 3 5 2 3 3 3 14 9 4 7 7 10 4 4 4 11 14 15 12 14 16 15 15 17 15 16 15 14 12 11 12 12 12 10 11 12 11 12 12 11 11 10 9 11 10 10 10 10 10 9 9 8 8 6 5 4 3 4 3 2 2 2 3 2 2 2 3 4 4 4 4 4 3 3 3 3 3 4 2 2 2 2 1 0 2 1 1 1 1 1 2 1 2 2 2
2 5 3 3 4 7 4 7 7 3 7 8 8 5 2 3 6 6 8 10 7 9 10 10 12 15 17 15 13 15 16 15 13 12 12 11 11 12 14 13 12 12 12 12 11 10 9 12 11 11 10 10 9 9 8 6 4 4 3 4 3 4 4 3 4 2 2 3 3 4 5 4 5 4 3 3 3 3 2 3 3 3 2 2 2 2 2 2 1 1 2 2 2 1 1 1 2
1 4 7 6 7 9 3 7 12 4 1 4 15 1 5 5 8 11 9 8 11 7 11 13 14 14 11 10 13 12 12 14 17 17 16 15 13 10 10 12 13 12 13 12 12 11 10 10 10 10 9 8 9 9 8 7 7 7 6 5 4 3 3 4 5 6 3 5 6 3 3 5 4 3 3 3 3 3 3 3 3 3 3 3 3 2 1 0 1 0 2 3 2 2 2 1 2
2 5 8 8 7 11 8 10 9 5 9 11 11 12 5 1 10 10 8 9 12 5 11 14 13 13 12 13 13 12 13 11 10 12 13 14 13 13 12 13 14 14 13 11 10 10 10 10 10 10 10 8 8 8 8 7 7 7 8 8 7 7 7 4 3 3 6 3 3 4 4 3 3 5 4 3 3 3 3 4 3 3 3 3 2 2 1 1 1 1 0 2 3 3 2 2 3
3 4 7 8 10 11 10 13 14 8 1 4 4 1 5 1 11 9 8 9 11 11 11 13 14 13 14 14 14 14 14 14 14 15 16 17 16 17 16 15 14 15 12 11 10 10 11 11 10 10 8 9 8 8 9 9 9 7 7 6 6 6 7 7 5 5 3 3 4 4 3 3 2 3 4 3 2 3 3 3 3 3 2 2 2 3 2 1 1 1 1 2 1 3 4 3 2
6 3 8 8 11 12 10 11 12 6 9 3 10 1 2 4 5 5 9 10 12 16 16 16 15 15 15 16 15 15 16 16 16 15 16 17 18 17 16 16 14 13 12 12 12 11 10 10 10 8 9 8 8 9 10 8 8 9 8 7 6 4 5 6 4 3 5 3 5 2 2 3 2 1 2 3 3 3 3 4 3 3 3 2 2 2 2 1 1 1 1 2 2 3 3 2 2
7 8 4 3 5 6 11 10 11 3 6 7 12 9 7 4 2 5 5 10 14 18 20 19 17 17 16 16 15 15 15 14 15 17 17 18 17 16 16 14 13 13 12 13 12 11 10 10 10 10 10 8 8 9 9 9 8 8 8 7 7 6 4 3 4 5 5 4 5 4 4 4 4 2 2 1 1 2 3 3 4 4 3 3 2 2 1 0 0 0 1 2 2 2 2 3 3
4 2 2 2 2 1 1 2 4 4 5 8 17 16 12 7 5 11 11 14 21 19 14 13 11 12 15 16 17 15 15 14 14 14 15 15 15 16 13 15 15 12 11 12 12 12 11 11 11 12 11 8 8 10 9 10 8 8 8 8 8 8 6 6 5 4 4 4 5 4 4 5 2 3 1 1 1 3 3 3 4 3 3 2 1 2 1 1 1 2 1 1 2 2 2 2 3
4 2 3 1 2 6 3 3 1 6 7 7 12 14 12 8 4 7 16 20 22 20 19 20 18 19 18 16 15 16 15 14 15 15 14 15 12 11 12 14 13 13 12 12 12 11 11 11 11 12 10 10 9 9 9 9 8 8 7 8 9 8 8 7 8 7 6 6 5 5 4 3 2 1 1 2 2 3 3 3 2 2 3 2 2 2 1 2 2 2 2 2 2 2 1 1 2
4 2 3 5 2 2 2 1 3 5 8 9 9 12 1 9 8 15 21 18 19 19 17 19 21 20 19 18 18 15 15 15 15 15 15 14 14 14 14 14 12 13 13 14 14 12 11 11 12 13 12 10 10 9 10 9 8 9 8 9 7 7 8 8 7 7 5 6 5 5 5 6 3 2 1 3 3 3 2 2 2 2 1 1 1 1 2 2 3 3 2 2 2 2 3 3 2
6 6 5 5 2 2 3 3 1 3 6 5 5 10 8 2 8 4 14 22 22 21 20 18 17 20 20 19 17 15 14 15 15 15 13 13 14 14 15 15 14 13 14 14 13 13 12 11 12 14 13 11 10 9 10 10 9 9 8 8 8 8 8 8 7 7 6 6 6 6 6 6 6 5 3 4 5 3 2 3 3 3 2 2 1 2 3 3 2 3 3 3 3 3 2 3 3
9 5 10 8 7 4 4 4 7 10 12 3 1 7 5 7 10 13 18 22 23 20 20 18 13 17 18 19 16 16 15 15 15 14 14 15 16 16 15 15 15 15 15 15 13 14 12 12 13 14 13 11 11 11 9 11 9 8 8 7 8 7 8 7 7 6 6 6 5 6 6 5 6 5 5 5 3 3 3 2 2 3 3 3 3 2 3 3 2 2 3 3 3 3 3 2 3
3 4 5 6 9 6 6 8 7 7 5 0 2 6 8 12 6 4 5 14 16 11 14 5 7 11 12 10 13 14 15 15 15 15 15 16 16 15 14 13 14 14 15 14 15 14 14 14 14 15 15 13 12 11 11 11 10 8 8 8 8 8 6 6 5 5 6 6 7 7 6 5 5 5 4 3 4 4 4 3 3 4 4 3 3 3 3 3 3 3 3 3 4 2 3 3 4
3 6 7 8 7 9 2 3 1 3 2 6 3 2 4 7 6 3 5 4 7 9 13 11 11 13 13 13 14 15 15 15 15 16 16 16 13 13 14 15 14 13 13 15 17 17 18 15 14 15 14 12 13 13 12 10 10 9 9 8 8 7 7 7 7 7 7 6 7 6 6 6 5 4 5 4 4 4 4 4 4 5 4 4 4 4 4 4 4 4 4 4 4 3 3 4 4
3 4 8 2 3 3 5 6 1 1 5 5 4 10 3 5 6 3 1 3 6 12 14 17 17 13 15 15 14 15 16 17 18 18 16 16 17 18 17 15 16 17 18 18 18 16 15 15 15 16 14 15 14 13 12 11 10 10 9 9 8 9 8 7 7 7 6 6 5 5 4 5 6 6 5 5 5 5 5 5 5 5 5 4 5 4 4 4 4 5 5 5 5 3 3 3 3
12 10 7 6 3 5 2 3 2 1 2 2 2 2 2 9 6 1 4 6 9 13 16 15 12 13 17 15 15 15 15 14 13 13 12 12 14 15 16 17 18 18 17 17 17 16 14 14 15 16 18 18 17 13 11 10 10 9 9 10 10 8 7 7 6 6 6 6 7 6 6 6 6 5 5 5 5 5 5 5 5 5 4 5 4 4 4 4 4 5 4 5 5 4 4 4 4
0 5 1 1 5 4 5 7 5 5 4 2 5 1 6 7 6 10 9 11 13 13 8 13 18 21 20 17 14 14 14 14 14 14 14 15 16 17 18 18 17 17 16 15 15 13 15 15 14 13 11 9 11 13 13 12 11 10 9 8 7 8 7 8 7 7 7 7 7 6 6 5 7 6 6 5 6 6 6 6 5 6 5 4 4 4 4 4 3 4 5 5 5 4 4 5 5
4 5 3 2 1 3 4 1 4 6 5 5 4 3 4 7 8 8 12 12 14 15 17 16 18 17 12 12 14 14 14 14 14 14 15 15 15 16 17 16 17 16 14 12 12 15 16 13 13 13 15 15 15 14 13 12 11 11 11 10 9 8 9 8 7 7 8 7 6 6 6 7 4 5 5 5 6 6 6 6 6 5 5 5 4 5 4 3 4 4 4 4 4 3 4 5 4
9 11 10 8 6 4 5 9 1 2 3 4 3 8 6 9 2 8 9 8 7 13 18 17 13 12 13 14 15 14 14 15 15 15 14 14 14 15 15 13 10 9 10 13 14 12 11 13 15 14 13 12 14 12 12 11 10 10 10 10 10 9 9 7 8 8 7 7 6 6 7 4 5 6 5 6 6 6 5 5 5 5 5 5 5 5 5 3 4 4 4 4 4 4 4 5 3
Wind_Direction
154 146 150 162 131 121 66 6 73 318 58 89 125 240 5 31 48 115 95 240 136 327 20 53 79 116 144 133 107 99 33 72 249 136 173 120 117 116 126 119 108 108 116 123 100 109 115 110 117 120 121 124 124 124 121 120 121 121 119 119 118 120 127 162 154 154 139 128 126 126 125 125 125 126 126 126 127 129 129 129 128 128 126 125 122 119 118 116 114 114 114 113 111 107 105 106 110
158 142 150 158 148 145 339 148 94 25 54 73 37 108 161 141 54 133 150 169 69 85 82 87 82 86 95 113 139 148 37 33 92 110 76 106 106 107 125 117 111 142 124 123 135 112 108 125 117 122 127 127 125 123 122 123 123 124 126 127 134 138 152 177 147 127 121 121 123 127 128 128 128 127 128 129 130 130 130 130 130 129 128 125 121 119 117 117 118 118 117 115 111 111 109 112 116
144 140 131 123 48 48 70 27 86 84 89 77 82 187 163 173 128 145 120 83 104 109 115 99 95 65 97 102 56 18 77 65 93 88 102 133 118 135 122 113 108 113 112 112 128 116 108 126 123 127 127 126 122 122 125 127 130 134 137 137 145 149 155 148 130 121 123 126 129 130 131 131 130 130 131 131 132 131 131 133 133 131 126 123 120 118 120 120 122 122 118 116 116 116 118 120 120
138 166 147 144 70 21 43 52 77 107 100 142 93 117 146 130 96 93 90 105 118 144 122 68 48 327 89 68 91 81 97 99 92 115 124 150 116 133 120 112 108 101 113 118 128 140 139 135 133 134 128 123 121 126 128 130 130 132 133 133 133 130 127 126 125 126 129 132 132 130 129 129 130 131 133 133 133 132 133 134 130 129 126 124 123 122 119 121 121 120 119 119 120 120 122 123 125
151 178 160 123 109 209 170 128 140 106 118 174 129 184 140 120 122 117 97 91 80 79 78 120 85 38 82 102 146 40 126 106 101 17 97 81 115 121 118 114 117 125 122 125 134 139 136 136 145 139 131 128 130 131 132 131 130 127 122 119 118 119 121 123 127 128 129 130 128 129 129 130 132 135 134 133 132 132 131 130 130 128 127 125 121 120 120 123 122 121 119 120 123 126 125 129 128
99 119 2 77 188 291 43 47 63 79 172 138 125 156 136 138 126 119 101 64 56 49 68 66 116 126 41 12 20 87 142 135 152 83 114 123 129 123 123 122 124 128 129 121 126 125 140 138 132 130 128 129 128 129 131 130 129 125 124 123 121 121 122 124 124 123 125 125 126 128 130 133 137 138 136 132 130 130 130 130 130 129 127 124 121 121 126 121 125 120 125 128 126 129 131 136 144
144 91 48 20 299 68 128 115 111 120 141 140 135 143 147 136 122 113 104 85 50 69 45 102 111 113 83 79 76 57 91 114 115 125 112 132 126 127 129 124 125 124 129 127 126 130 140 132 136 136 127 129 131 131 129 126 122 121 121 122 123 125 125 124 123 123 124 126 127 128 131 135 135 135 131 129 130 130 130 129 130 130 129 128 129 132 132 134 132 143 144 148 148 143 147 149 152
144 109 183 163 271 50 60 103 95 122 114 142 139 134 137 133 129 113 106 110 135 95 101 83 36 96 56 41 97 76 93 74 98 107 120 127 130 132 129 128 124 127 129 129 129 137 148 152 161 148 140 137 134 131 128 126 124 124 126 127 129 129 128 127 127 126 127 128 128 130 133 135 135 134 133 134 133 134 132 134 135 136 139 140 144 148 151 156 165 165 171 173 172 173 167 166 163
107 96 19 72 49 45 69 101 122 142 113 119 114 125 132 137 141 120 107 91 95 75 112 133 157 59 141 80 61 78 80 99 107 121 127 128 134 134 128 129 130 131 131 136 137 142 150 144 157 147 145 141 139 136 133 131 130 130 131 132 131 130 131 130 132 131 131 131 131 132 136 138 138 138 139 139 141 140 141 142 145 146 147 154 162 169 171 179 182 188 186 186 195 198 206 185 182
96 132 225 165 127 74 74 85 106 163 133 146 140 145 142 137 119 113 120 101 112 113 95 52 60 112 111 96 102 57 104 118 126 126 128 134 131 127 127 128 129 134 136 141 142 146 151 152 148 146 143 141 139 138 137 137 138 139 138 138 138 138 136 138 137 135 136 137 138 143 145 145 145 144 144 148 147 150 149 149 152 156 166 173 183 190 190 195 203 203 207 205 212 234 228 217 217
185 207 189 63 40 67 107 114 108 120 128 117 87 117 126 123 117 106 104 102 85 104 101 98 86 109 109 82 52 100 120 129 140 139 141 140 131 128 129 128 132 135 141 145 138 138 146 149 149 148 142 142 140 141 141 142 142 143 143 144 144 144 144 144 145 143 143 143 147 151 150 148 147 149 150 154 157 156 156 160 166 175 181 194 200 207 212 215 222 221 224 236 240 249 257 259 260
313 166 1 99 103 139 171 123 118 95 105 113 109 130 150 124 114 111 121 115 123 126 129 204 132 123 91 109 117 129 133 147 141 140 146 138 133 127 126 132 133 137 141 142 139 142 147 142 150 147 144 144 145 145 146 148 147 146 148 148 148 147 146 149 149 150 152 153 154 154 154 151 153 155 159 161 163 168 167 172 184 188 197 212 224 226 231 238 242 251 251 254 256 254 262 265 267
201 92 77 81 168 93 131 101 123 118 114 152 143 141 133 133 133 131 123 119 137 134 154 97 144 147 106 113 125 132 150 153 144 149 141 135 125 118 121 132 134 134 139 137 136 134 126 126 129 148 149 148 149 149 150 149 149 149 150 149 149 151 152 155 155 155 156 157 156 157 159 159 160 163 166 170 172 178 182 184 194 206 212 220 230 240 242 249 252 263 261 265 270 272 273 273 271
170 173 118 123 24 113 122 135 131 129 156 152 142 141 161 134 143 132 126 127 152 104 125 135 118 104 94 114 140 160 163 159 153 146 137 125 121 125 120 126 131 134 134 139 133 130 126 122 133 148 153 146 148 152 153 153 153 155 154 154 156 158 159 159 159 159 158 158 160 161 164 168 169 169 175 179 181 189 195 198 211 221 227 235 243 247 249 254 268 271 270 271 278 280 279 278 276
217 127 81 122 70 95 195 131 167 142 162 160 161 154 155 183 137 142 144 140 58 127 123 70 147 101 190 165 160 177 167 162 154 137 134 115 116 118 122 120 121 126 137 138 127 132 133 129 140 141 145 143 143 144 153 161 159 159 160 160 161 161 162 162 162 160 161 161 163 167 171 174 176 176 184 189 194 199 200 212 222 227 230 232 239 245 254 259 257 269 288 294 291 300 294 283 274
198 88 89 110 230 133 215 135 144 131 160 166 167 143 113 109 129 133 146 106 124 132 137 142 241 187 159 190 162 159 157 158 148 137 126 119 108 109 116 122 123 127 137 139 135 129 141 136 142 150 150 149 152 151 156 165 165 164 164 166 166 165 166 165 164 163 164 168 169 172 176 181 183 188 194 200 205 206 210 213 232 236 238 244 248 255 261 264 276 289 298 319 320 308 322 321 312
52 79 95 52 206 155 189 130 146 159 157 162 154 149 131 147 171 33 85 116 127 160 177 70 155 102 148 129 143 147 149 154 141 134 125 121 123 120 117 123 129 143 156 162 163 152 155 156 158 156 167 159 159 156 162 160 174 169 169 169 169 169 168 169 169 170 171 174 174 176 184 173 191 196 227 203 223 222 216 228 236 245 253 254 260 262 262 282 289 292 302 307 300 296 291 302 314
59 152 112 145 195 159 202 166 180 152 146 155 155 162 133 142 113 112 106 101 117 115 86 86 77 80 108 120 134 143 149 146 142 137 140 140 137 138 144 146 152 165 166 170 183 178 169 172 169 170 167 168 160 155 155 162 180 170 160 169 167 173 174 174 174 172 174 171 179 184 165 181 194 213 247 239 231 264 247 240 245 254 255 260 264 267 270 272 262 256 274 290 303 293 293 259 241
117 106 107 221 192 221 162 162 140 136 153 153 155 165 143 141 130 156 129 140 136 114 110 114 99 102 113 126 139 146 150 142 145 144 146 147 151 153 157 158 165 160 174 177 183 186 181 169 177 178 175 170 159 154 159 171 175 144 159 157 163 177 183 173 158 173 125 171 175 169 189 202 195 216 233 239 232 245 247 256 264 261 269 277 276 278 275 272 274 276 277 269 279 287 293 237 243
239 122 196 231 212 201 172 142 160 151 146 147 146 165 133 140 135 159 142 149 143 142 141 128 133 139 142 142 147 150 147 145 146 148 150 151 155 158 161 165 169 177 175 179 178 182 178 183 185 184 181 174 163 165 160 176 160 157 157 160 178 176 187 156 167 157 171 184 188 193 205 211 217 224 245 243 241 255 270 266 268 274 275 278 278 282 280 283 280 279 278 279 259 249 264 276 256
265 131 195 215 193 159 202 147 155 147 149 147 144 130 131 151 144 147 138 123 166 175 165 155 157 154 149 151 151 149 150 148 147 153 152 153 158 161 167 173 175 173 175 168 175 184 185 186 183 189 182 174 168 176 171 180 160 158 158 170 185 186 179 157 176 182 193 197 200 203 214 221 231 231 251 276 280 272 259 265 268 284 298 289 290 296 291 294 300 302 298 294 291 280 280 286 283
125 203 218 188 149 181 175 153 149 148 142 134 135 137 153 141 134 146 151 150 180 185 181 155 145 153 152 155 155 151 153 152 154 157 160 162 164 164 167 172 168 168 168 174 186 183 187 188 188 181 175 181 181 183 180 183 166 178 180 190 192 194 184 179 190 199 202 210 209 209 209 222 225 220 219 236 250 231 249 257 260 264 291 278 293 293 297 292 288 289 288 286 285 280 265 270 268
240 260 218 175 172 162 156 138 146 136 137 138 145 148 138 153 156 166 163 167 178 154 153 155 150 152 152 150 152 154 155 158 160 162 164 165 165 169 169 170 170 173 178 184 179 187 185 190 189 178 181 183 190 188 174 187 184 188 184 193 189 201 190 190 204 210 210 209 209 210 205 216 214 209 220 229 235 235 248 256 256 257 259 270 282 275 280 279 285 288 285 279 286 290 283 262 250
209 245 170 179 162 151 136 144 144 137 134 141 133 141 142 138 145 179 124 0 132 135 140 144 143 144 147 151 160 160 160 163 166 168 169 171 170 173 171 170 172 168 178 181 184 183 184 191 186 182 185 185 192 189 180 191 192 182 193 203 203 206 193 207 204 203 209 214 208 210 215 208 206 210 220 216 231 219 239 244 260 264 250 257 261 260 276 286 287 284 281 284 287 291 292 282 249
166 202 164 115 102 130 141 137 136 121 114 122 131 142 160 157 149 137 145 138 130 130 135 138 144 147 153 155 161 163 163 165 168 169 170 169 173 169 171 169 171 169 183 184 184 184 190 189 183 188 186 189 191 185 189 192 189 187 193 202 207 208 205 211 206 197 208 212 216 215 212 209 209 212 213 220 212 225 238 247 253 255 254 252 252 267 253 276 280 273 278 277 276 281 289 284 271
132 152 134 129 123 134 132 126 126 122 122 125 116 122 115 109 98 59 144 140 137 134 136 144 147 150 157 163 162 164 167 170 169 171 176 171 172 170 178 178 175 181 188 182 182 191 188 188 186 190 187 186 187 187 189 186 191 192 202 207 206 209 212 208 205 206 207 202 220 217 217 209 211 208 215 220 207 238 245 265 270 266 266 270 258 267 253 251 261 270 269 269 270 270 273 276 284
169 126 130 131 138 128 135 131 128 123 130 132 124 133 135 142 123 102 138 144 140 139 143 150 152 156 161 165 166 168 171 173 174 175 172 173 175 178 181 181 183 188 180 184 187 189 187 185 192 191 187 191 180 193 186 194 189 202 204 205 208 210 208 204 210 210 208 211 219 213 218 228 221 218 218 220 227 246 268 278 272 281 278 272 263 262 261 246 252 248 248 259 268 267 264 273 282
106 124 105 114 128 125 130 118 122 114 93 127 120 120 118 87 35 155 156 154 150 145 151 153 157 160 163 166 169 174 177 179 179 173 178 178 183 181 182 183 189 186 186 188 188 183 181 189 192 192 188 189 185 195 192 193 198 206 204 200 209 209 202 209 215 210 216 219 218 201 202 219 226 217 218 219 209 220 242 254 264 265 262 266 247 256 264 253 264 351 331 331 318 312 294 281 280
156 122 111 121 116 119 140 135 144 125 121 131 115 94 80 143 162 150 149 149 153 152 154 158 161 163 165 169 171 179 185 184 181 183 185 185 185 182 186 189 185 188 195 189 185 180 185 186 190 193 188 192 190 195 196 200 201 206 204 207 208 205 207 210 213 211 215 216 215 210 204 208 220 216 217 211 207 203 218 237 252 254 258 263 256 248 252 265 267 245 253 211 225 270 318 308 312
287 121 125 116 106 123 189 130 137 125 156 146 122 120 229 224 149 149 150 152 152 151 158 162 164 167 171 174 177 185 191 185 188 191 188 187 186 188 189 190 189 189 186 190 183 188 186 186 188 190 190 193 193 196 196 199 204 205 209 210 210 204 210 212 221 210 207 214 210 202 204 205 212 214 202 197 196 200 220 235 247 257 251 248 249 248 246 251 249 250 250 294 304 305 285 272 278
183 156 123 141 123 167 215 175 151 128 177 165 79 138 242 194 166 154 159 155 155 161 167 167 169 173 177 180 181 190 194 190 192 194 193 189 188 189 191 188 190 188 185 185 188 189 185 183 183 190 191 194 195 196 194 200 201 203 208 210 209 206 213 217 224 209 209 220 208 209 207 209 214 214 200 182 180 186 207 229 236 246 249 260 243 237 250 244 243 247 224 246 260 253 251 275 273
182 125 82 164 142 206 198 261 155 137 200 231 89 92 190 175 175 166 163 163 161 163 172 173 175 179 184 184 184 192 194 196 199 196 194 191 187 188 189 189 186 183 187 191 189 183 187 183 183 185 187 191 198 197 198 200 197 198 204 211 210 210 212 216 216 215 215 213 209 213 206 209 202 201 193 177 178 187 200 221 237 265 252 221 235 229 222 251 244 254 229 229 270 269 267 274 268
204 117 179 181 181 162 184 221 226 161 166 217 144 162 90 192 184 173 169 166 169 167 175 177 179 183 187 188 186 191 193 200 204 201 197 192 191 188 188 187 183 188 188 185 185 184 189 187 185 185 188 191 194 198 198 198 197 196 205 209 203 204 214 223 225 219 227 221 212 207 191 197 190 194 189 185 196 212 209 223 208 224 231 255 265 285 277 245 239 276 280 236 216 258 258 266 267
221 271 178 199 157 160 187 199 231 206 148 180 115 132 188 167 176 176 176 171 170 173 177 180 181 184 188 190 187 187 193 193 200 201 197 191 191 190 188 185 185 188 189 186 187 183 188 187 189 190 193 193 193 194 194 195 197 198 205 207 196 197 213 217 219 206 215 211 201 204 194 201 198 175 163 177 198 213 226 268 295 300 312 321 336 331 311 311 261 233 273 244 210 223 261 283 285
207 203 174 201 185 169 176 169 208 185 179 151 152 136 166 153 172 180 180 177 174 178 178 181 183 184 187 189 189 187 190 191 198 197 192 191 190 191 187 186 185 186 187 188 188 191 185 187 190 195 191 194 195 194 194 194 195 199 199 196 199 211 217 213 197 190 199 192 195 194 192 188 157 162 164 172 180 224 278 283 299 306 311 330 328 316 317 322 316 310 299 296 281 233 258 265 269
210 202 186 157 163 200 194 186 153 167 167 151 154 160 169 164 178 184 183 183 182 184 181 180 183 185 185 187 192 189 190 195 193 188 188 188 188 186 187 185 183 184 187 186 187 189 188 189 189 192 193 191 186 179 177 181 182 189 189 183 193 198 200 190 192 196 196 202 206 183 152 146 153 157 160 157 172 195 217 253 271 283 297 264 270 309 298 278 274 291 290 278 302 313 268 254 269
165 173 279 182 174 194 193 182 169 171 130 184 178 160 165 172 181 186 183 180 188 182 185 186 186 186 187 189 192 193 191 195 190 180 177 185 186 185 183 179 180 182 188 185 186 190 190 188 184 192 192 184 177 180 182 177 177 181 167 181 183 183 181 196 197 221 217 220 260 71 110 126 163 164 159 165 186 206 213 216 233 263 244 232 215 230 240 258 248 233 258 329 307 319 308 322 291
169 181 195 271 180 185 189 181 168 181 152 197 171 160 177 180 183 184 180 180 193 187 186 191 189 187 188 189 193 194 195 178 166 168 169 178 183 182 178 177 173 176 191 185 188 192 192 188 188 191 181 184 188 190 188 184 187 181 164 180 167 168 177 174 193 203 209 188 155 170 164 166 178 189 183 182 186 185 213 218 207 240 230 201 217 269 274 280 296 241 158 3 350 323 296 291 309
172 163 173 358 286 4 31 158 166 181 123 185 158 172 189 186 186 183 185 192 196 189 186 190 186 190 189 191 192 190 174 177 176 181 168 177 177 178 176 178 180 181 179 184 190 189 189 189 193 185 184 184 193 191 182 189 187 170 161 163 165 178 196 128 147 201 198 191 184 186 183 184 189 193 196 186 187 196 205 202 222 207 153 133 5 337 356 344 329 8 159 162 322 329 269 285 312
170 121 118 207 225 190 212 196 168 175 162 173 175 169 203 198 211 202 200 196 200 196 191 190 187 186 191 194 190 185 180 172 179 178 176 176 173 174 176 178 180 177 176 176 178 184 185 189 188 185 187 188 189 194 190 191 180 178 165 152 140 102 169 112 68 68 129 132 176 172 185 185 187 197 193 186 195 196 191 199 195 160 205 190 167 240 316 289 328 355 109 128 114 23 7 313 6
241 171 163 159 157 247 194 171 151 93 14 111 89 60 347 227 197 216 228 222 219 207 198 201 199 198 196 194 189 184 182 177 176 177 175 173 173 177 178 179 174 174 177 177 176 178 181 183 184 183 185 188 190 191 187 176 157 134 104 65 81 70 46 75 103 67 114 152 136 168 190 185 183 192 185 187 185 196 177 174 170 194 188 178 149 170 202 225 240 206 160 136 161 155 290 290 317
303 225 186 188 190 203 265 124 138 103 38 214 143 78 241 243 227 212 202 209 219 202 194 204 202 205 199 193 198 198 192 181 176 178 177 177 176 174 176 174 175 177 178 181 178 177 173 176 176 180 183 186 187 189 176 168 171 164 153 150 161 158 143 148 157 159 160 150 169 171 162 176 173 172 168 167 186 165 181 189 185 176 183 181 179 185 204 216 288 164 199 162 189 203 192 256 288
142 267 191 202 199 203 151 155 135 132 188 211 181 172 253 268 218 217 219 218 220 209 204 207 204 203 198 198 197 194 192 189 188 178 172 173 178 174 179 178 179 179 183 176 177 178 176 173 175 177 181 184 183 181 173 171 169 173 176 180 178 180 169 213 201 183 159 190 155 157 169 167 163 159 187 184 178 172 182 190 177 176 190 178 185 146 173 220 237 223 215 160 190 183 146 182 240
224 233 161 200 216 216 173 170 179 199 35 73 191 106 144 191 237 211 212 222 224 228 225 213 207 202 200 202 197 193 193 187 183 184 182 180 178 179 181 183 181 182 177 173 178 176 177 177 175 180 180 179 181 174 175 176 174 177 176 180 178 173 176 182 187 187 193 155 157 174 166 186 193 197 170 197 189 202 174 156 165 169 181 171 192 194 203 218 234 291 218 201 166 177 179 186 228
220 210 156 187 203 211 182 178 194 189 137 179 202 180 70 236 269 169 184 219 233 232 225 219 208 203 203 203 200 196 193 189 186 184 186 184 184 185 180 183 185 178 174 177 179 181 180 179 177 176 180 177 179 176 174 181 175 174 176 171 180 187 180 179 166 166 167 171 160 167 176 190 190 185 196 185 153 187 171 164 156 169 167 176 203 205 222 171 185 179 194 185 195 204 194 193 146
256 240 148 165 197 207 182 194 194 148 128 189 201 195 192 274 273 161 192 216 230 230 226 222 207 200 200 202 203 199 196 193 193 192 189 188 187 186 185 178 178 182 178 179 178 176 179 176 177 179 186 181 178 177 176 178 176 167 167 175 175 180 185 151 143 158 172 169 165 181 179 172 189 182 192 66 81 119 142 144 156 178 174 188 193 192 182 144 173 193 207 200 168 190 222 188 194
208 69 115 39 66 210 56 74 103 91 207 216 201 193 186 218 227 183 165 210 214 223 227 226 211 208 206 205 199 196 195 194 193 196 196 196 192 185 176 182 185 178 179 178 178 179 179 178 181 184 190 182 180 179 173 177 174 170 172 174 173 169 172 154 146 163 156 155 170 176 171 186 193 188 139 57 123 130 135 152 166 184 185 195 174 153 183 196 207 184 204 172 170 178 196 203 244
190 228 209 106 307 24 40 354 43 166 230 242 209 198 188 204 261 240 212 211 212 213 212 211 200 202 203 203 202 198 194 193 195 194 196 195 189 188 182 186 182 181 178 181 181 180 181 182 181 187 188 185 184 181 175 176 172 176 173 169 171 168 162 163 168 177 183 177 174 177 194 181 206 198 88 110 153 158 154 161 168 169 195 183 198 193 196 208 205 172 169 173 205 219 192 188 212
158 144 94 149 255 32 264 82 194 206 197 230 187 185 243 243 224 203 209 220 221 219 215 211 199 200 201 202 199 195 193 193 193 196 196 192 187 184 188 189 183 182 184 184 184 182 182 183 184 185 192 188 185 180 180 176 175 177 175 174 170 164 165 167 175 178 185 177 179 176 174 187 191 159 163 151 196 193 168 147 173 192 232 236 222 185 220 209 192 190 190 202 201 204 212 199 194
142 170 155 159 143 156 203 240 306 317 301 272 190 173 215 277 278 236 215 216 220 216 218 219 194 195 198 200 197 191 191 193 196 197 196 191 190 190 189 187 186 187 187 186 184 184 185 186 187 188 193 186 183 180 180 176 182 180 176 173 169 164 172 174 180 179 184 183 178 180 181 181 178 185 179 188 201 204 197 203 193 209 220 242 230 215 221 220 207 209 217 232 238 233 195 199 207
197 147 166 180 156 156 199 184 193 206 206 225 357 122 220 174 233 205 203 219 222 217 217 216 191 194 199 199 191 189 187 193 195 196 195 194 193 191 189 188 189 189 188 186 186 188 185 188 188 191 189 187 182 183 180 181 181 178 177 175 169 170 174 178 182 183 175 177 187 180 189 181 174 191 182 206 201 198 209 206 212 216 234 244 248 232 228 230 232 230 233 230 242 230 215 205 223
202 169 87 137 215 144 211 196 182 206 216 158 158 189 189 197 247 273 232 228 230 220 233 201 184 194 199 193 189 192 194 192 193 196 198 198 194 190 189 191 192 192 190 188 188 187 189 192 190 192 189 182 184 182 184 183 181 175 174 172 176 176 177 170 174 180 179 177 180 182 187 186 188 186 207 195 213 197 204 204 216 222 230 233 229 224 226 223 226 222 240 235 249 232 217 221 239
232 131 199 211 179 154 107 28 328 77 49 246 179 292 296 321 318 295 320 219 206 191 215 206 201 194 189 194 190 194 193 194 194 198 198 195 190 190 191 192 193 192 190 192 191 190 191 188 188 191 188 182 185 184 183 182 176 172 179 176 173 177 174 173 180 185 184 186 177 185 180 194 192 189 204 202 208 208 204 197 204 221 232 231 227 226 224 227 225 222 224 224 239 246 213 221 227
124 186 227 172 112 113 143 204 356 88 168 246 135 194 212 143 240 286 9 164 191 186 196 203 202 189 192 198 191 192 194 197 197 198 196 191 188 189 191 193 192 192 194 195 195 193 191 188 188 188 184 186 189 182 181 178 175 177 175 180 181 177 173 178 180 182 183 174 189 187 190 188 199 201 196 203 201 203 207 208 202 219 227 225 226 229 219 224 216 225 226 224 229 223 219 234 220
213 227 166 164 239 253 296 113 197 151 211 248 262 229 253 180 228 243 228 188 196 198 196 195 192 191 204 200 194 196 197 196 197 197 193 192 191 191 192 194 196 198 197 196 196 190 188 191 190 188 189 190 184 181 177 177 177 178 179 182 178 174 176 179 183 180 172 181 190 193 194 198 200 200 198 198 199 206 208 212 207 222 226 227 226 230 223 221 206 219 228 230 235 217 222 237 239
311 59 153 142 125 176 157 201 175 146 240 123 284 110 219 208 216 196 215 203 194 190 178 191 193 198 201 196 188 192 193 196 197 196 195 194 192 192 193 194 194 196 196 197 193 191 193 193 189 194 194 184 179 180 178 179 182 177 178 174 174 173 178 179 180 175 183 191 194 190 197 197 205 195 200 199 201 205 204 205 213 219 231 233 234 236 219 215 192 212 221 226 234 209 219 230 246
209 206 236 200 136 218 116 39 137 175 172 186 187 268 276 254 211 180 209 203 193 177 187 196 200 201 193 185 190 193 194 196 198 198 197 193 192 195 197 198 199 197 196 190 188 193 196 188 190 189 184 185 188 188 181 181 175 181 174 176 173 176 184 182 178 183 187 196 194 192 194 204 197 209 198 196 201 208 206 206 209 216 221 229 230 241 234 210 199 219 230 230 242 212 218 237 237
193 191 206 177 128 129 188 246 24 106 124 199 151 241 263 269 198 199 210 216 187 200 188 190 188 180 182 194 196 189 193 201 199 199 196 192 193 194 196 197 192 185 187 191 195 193 188 192 194 190 188 187 188 186 188 180 178 175 177 177 175 183 183 177 181 189 191 193 192 194 200 189 199 219 201 204 207 211 207 205 208 221 224 227 226 234 236 213 215 223 242 230 236 232 228 240 234